SL-12 R/B(AUX MOTOR)

Satellite information

Favourite Embed

Satellite Type and Status

ROCKET BODYIN ORBIT

Key statistics

Satellite SL-12 R/B(AUX MOTOR) at a glance.

Uptime

13930

Days in orbit

Revolutions

≈ 4.4

Per day

Orbit

HEO

HEO

Inclination

65.1

Latest

Satellite identification and parameters

Extended collection of information and parameters for SL-12 R/B(AUX MOTOR).

Object identification

Identified? True

Debris? False

Object name: SL-12 R/B(AUX MOTOR)

International designator: 1987-079G

Object number (NORAD): 18374

Object ID (CCSDS): 18374

Country: COMMONWEALTH OF INDEPENDENT STATES (CIS)

Current information (Y/N): Y

RCS size: MEDIUM

Orbital parameters

Period: 328.54 minutes

Inclination: 65.0941 deg

SMA: 15771.956 km

Apoapsis: 18397.168 km

Periapsis: 390.474 km

RAAN: 354.1934 deg

Eccentricy: 0.57084531

Argument of periapsis: 357.3869 deg

Mean anomaly: 0.6962 deg

Mean motion: 4.38302986 rev/day

Mean motion (dot): 0.0000084 rev/day2

B* drag term: 0.00067636813 1/REarth

Two-line elements (TLE)

Creation date: Nov. 4, 2025, 4:40 a.m.

Reference frame: TEME

Reference center: EARTH

Epoch: Nov. 3, 2025, 5:42 a.m. UTC

TLE line 0: 0 SL-12 R/B(AUX MOTOR)

TLE line 1: 1 18374U 87079G 25307.23775317 .00000840 00000-0 67637-3 0 9990

TLE line 2: 2 18374 65.0941 354.1934 5708453 357.3869 0.6962 4.38302986595805

Live tracking on map

Real-time ground track for satellite SL-12 R/B(AUX MOTOR).

In-orbit conjunctions

There are no conjunctions computed for SL-12 R/B(AUX MOTOR), at the moment. Check back to stay up to date, as we update our databases every day.

Go to all conjunctions

Associated space launch

GLONASS navigation satellites

SL-12 R/B(AUX MOTOR) was lifted into orbit during the mission ‘Proton | Uragan 20 to 22’, on board a Proton space rocket.

The launch took place on Sept. 16, 1987, 2:53 a.m. from 200/40.

For more information about the launch, click the button.

Launch to space Proton | Uragan 20 to 22
Proton | Uragan 20 to 22

Agency: N/A

Status: Launch Successful

Launch date: Sept. 16, 1987, 2:53 a.m. UTC

Rocket: Proton

Launch pad: 200/40

Location: Baikonur Cosmodrome, Republic of Kazakhstan

...

Latest news about this satellite

There are no fresh news available about this satellite. Check back as we update our databases every day.


Newsletter sign-up

Weekly statistics, charts and insights to help you stay on top of the space industry.